1513252800.14,178,6.06,71652.3,-7.21,-18.07,-17.93,0,*58
1513252801.41,179,6.06,71656.0,-7.21,-17.97,-17.93,0,*5F
1513252802.64,180,6.06,71656.5,-7.21,-17.83,-17.83,0,*5D
1513252803.88,181,6.06,71646.5,-7.21,-17.55,-17.49,0,*51
1513252805.13,182,6.06,71674.0,-7.21,-17.63,-17.35,0,*5C
1513252806.37,183,6.06,71646.0,-7.21,-17.69,-17.03,0,*52
1513252807.64,184,6.06,71636.8,-7.21,-17.93,-16.65,0,*51
1513252808.91,185,6.06,71658.3,-7.21,-17.93,-16.23,0,*52
1513252810.16,186,6.06,71678.5,-7.21,-17.79,-15.71,0,*51
1513252811.39,187,6.06,71636.3,-7.15,-17.49,-15.39,0,*58
1513252812.65,188,6.06,71656.5,-7.21,-17.11,-15.01,0,*56
1513252813.91,189,6.06,71650.8,-7.23,-16.65,-14.83,0,*5C
1513252815.18,190,6.06,71624.0,-7.17,-16.27,-14.97,0,*50
1513252816.41,191,6.06,71628.3,-7.17,-15.71,-15.25,0,*59
1513252817.64,192,6.06,71626.5,-7.17,-15.29,-15.71,0,*56
1513252818.88,193,6.06,71632.3,-7.21,-15.35,-16.45,0,*5B
1513252820.13,194,6.06,71666.0,-7.21,-15.63,-17.21,0,*5C
1513252821.34,195,6.06,71630.0,-7.21,-16.03,-17.69,0,*54
1513252822.56,196,6.06,71646.5,-7.21,-16.45,-18.17,0,*53
1513252823.78,197,6.06,71644.5,-7.21,-17.35,-18.45,0,*53
1513252825.06,198,6.06,71594.0,-7.21,-17.41,-18.31,0,*5C
1513252826.31,199,6.06,71614.3,-7.21,-17.69,-18.31,0,*57
1513252827.53,200,6.06,71668.8,-7.21,-17.83,-18.41,0,*57
1513252828.78,201,6.06,71682.3,-7.21,-18.07,-18.31,0,*52
1513252830.0,202,6.06,71668.0,-7.23,-18.31,-18.25,0,*53
1513252831.23,203,6.06,71668.5,-7.23,-18.69,-17.79,0,*59
1513252832.48,204,6.06,71668.3,-7.17,-18.93,-16.97,0,*5D
1513252833.73,205,6.0,71672.8,-7.21,-19.03,-16.17,0,*59
1513252834.98,206,6.06,71650.0,-7.21,-18.83,-14.97,0,*59
1513252836.22,207,6.06,71616.5,-7.21,-17.93,-13.55,0,*5F
1513252837.47,208,6.06,71634.5,-7.21,-16.75,-12.57,0,*5A
1513252838.71,209,6.06,71644.3,-7.23,-14.97,-11.97,0,*58
1513252839.93,210,6.06,71682.0,-7.21,-13.73,-12.03,0,*51
1513252841.17,211,6.06,71698.5,-7.21,-13.11,-12.15,0,*53
1513252842.39,212,6.06,71690.0,-7.23,-12.57,-12.29,0,*5E
1513252843.64,213,6.06,71684.5,-7.21,-12.61,-12.89,0,*52
1513252844.84,214,6.06,71688.0,-7.23,-12.97,-13.55,0,*5E
1513252846.06,215,6.06,71694.3,-7.23,-13.47,-14.01,0,*55
1513252847.28,216,6.06,71712.3,-7.21,-14.15,-14.69,0,*5A
1513252848.54,217,6.06,71708.0,-7.23,-14.83,-15.43,0,*5F
1513252849.79,218,6.06,71720.3,-7.23,-15.89,-15.85,0,*51
1513252850.99,219,6.06,71698.8,-7.23,-16.59,-15.75,0,*51
1513252852.24,220,6.06,71684.3,-7.23,-17.55,-15.89,0,*55
1513252853.44,221,6.06,71690.3,-7.23,-17.69,-15.63,0,*5F
1513252854.71,222,6.06,71676.0,-7.21,-17.41,-15.35,0,*57
1513252855.93,223,6.06,71690.3,-7.23,-17.11,-15.11,0,*57
1513252857.16,224,6.06,71678.3,-7.23,-16.75,-14.83,0,*59
1513252858.39,225,6.06,71670.0,-7.23,-16.59,-14.83,0,*56
1513252859.63,226,6.06,71690.8,-7.21,-17.07,-14.61,0,*51
1513252860.88,227,6.06,71722.5,-7.23,-17.25,-13.97,0,*5C
1513252862.08,228,6.06,71708.8,-7.23,-16.93,-12.89,0,*51
1513252863.32,229,6.06,71700.0,-7.25,-15.81,-11.77,0,*54
1513252864.56,230,6.06,71710.0,-7.25,-14.75,-11.37,0,*52
1513252865.79,231,6.06,71706.0,-7.25,-13.79,-11.19,0,*54
1513252867.04,232,6.06,71714.3,-7.25,-13.01,-11.07,0,*57
1513252868.23,233,6.06,71712.0,-7.25,-12.43,-10.85,0,*5A
1513252869.48,234,6.06,71708.3,-7.25,-12.07,-10.63,0,*55
1513252870.76,235,6.06,71712.0,-7.27,-11.67,-10.63,0,*53
1513252872.04,236,6.06,71720.3,-7.27,-11.59,-10.67,0,*59
1513252873.3,237,6.06,71730.8,-7.27,-11.45,-10.63,0,*51
1513252874.51,238,6.06,71730.0,-7.25,-11.37,-10.85,0,*51
1513252875.76,239,6.06,71732.8,-7.27,-11.19,-10.79,0,*5D
1513252876.98,240,6.06,71730.5,-7.27,-11.23,-10.85,0,*59
1513252878.23,241,6.06,71728.5,-7.27,-11.37,-10.93,0,*5A
1513252879.48,242,6.06,71732.8,-7.25,-11.51,-11.07,0,*57
1513252880.7,243,6.06,71734.5,-7.25,-11.63,-11.11,0,*50
1513252881.95,244,6.06,71724.5,-7.25,-11.93,-11.33,0,*58
1513252883.19,245,6.06,71722.0,-7.27,-12.03,-11.33,0,*51
1513252884.44,246,6.06,71724.3,-7.25,-12.15,-11.37,0,*53
1513252885.7,247,6.06,71720.8,-7.27,-12.15,-11.33,0,*54
1513252886.95,248,6.06,71720.3,-7.27,-12.15,-11.45,0,*5A
1513252888.2,249,6.06,71708.8,-7.27,-11.67,-11.23,0,*5D
1513252889.42,250,6.06,71704.8,-7.27,-11.23,-11.11,0,*54
1513252890.68,251,6.06,71694.5,-7.27,-11.45,-11.59,0,*59
1513252891.92,252,6.06,71692.5,-7.27,-11.81,-12.29,0,*56
1513252893.19,253,6.06,71704.3,-7.27,-11.51,-12.15,0,*55
1513252894.46,254,6.06,71714.5,-7.27,-11.51,-12.35,0,*50
1513252895.74,255,6.06,71726.0,-7.27,-11.89,-12.75,0,*50
1513252896.99,256,6.06,71730.3,-7.29,-12.07,-12.79,0,*54
1513252898.21,257,6.06,71728.0,-7.31,-12.25,-12.89,0,*53
1513252899.46,258,6.06,71736.5,-7.31,-12.25,-12.57,0,*5F
1513252900.69,259,6.06,71734.8,-7.27,-12.43,-12.47,0,*58
1513252901.96,260,6.06,71724.0,-7.27,-12.79,-12.53,0,*5E
1513252903.2,261,6.06,71708.3,-7.27,-13.07,-12.61,0,*56
1513252904.48,262,6.06,71694.5,-7.27,-13.01,-12.35,0,*52
1513252905.7,263,6.06,71694.8,-7.29,-12.79,-12.21,0,*56
1513252906.92,264,6.06,71698.0,-7.29,-12.65,-12.25,0,*58
1513252908.14,265,6.06,71704.3,-7.27,-12.43,-12.21,0,*57
1513252909.39,266,6.06,71710.3,-7.27,-12.35,-12.43,0,*51
1513252910.65,267,6.06,71722.3,-7.27,-12.21,-12.61,0,*55
1513252911.87,268,6.06,71722.3,-7.25,-12.07,-12.93,0,*51
1513252913.14,269,6.06,71720.5,-7.27,-12.15,-13.29,0,*51
1513252914.39,270,6.06,71720.3,-7.25,-12.07,-13.61,0,*54
1513252915.64,271,6.06,71706.0,-7.27,-12.15,-14.61,0,*53
1513252916.89,272,6.06,71712.8,-7.25,-12.61,-15.39,0,*5D
1513252918.12,273,6.06,71714.0,-7.25,-13.19,-16.23,0,*5A
1513252919.35,274,6.06,71718.5,-7.25,-14.01,-16.97,0,*5C
1513252920.57,275,6.06,71724.3,-7.25,-14.89,-17.45,0,*53
1513252921.8,276,6.06,71744.3,-7.25,-15.63,-17.97,0,*5A
1513252923.04,277,6.06,71728.5,-7.21,-16.59,-18.55,0,*54
1513252924.24,278,6.06,71734.3,-7.23,-17.35,-18.69,0,*5D
1513252925.45,279,6.06,71726.0,-7.23,-17.69,-18.59,0,*56
1513252926.67,280,6.06,71712.3,-7.23,-18.17,-18.89,0,*5B
1513252927.86,281,6.06,71716.5,-7.23,-18.45,-18.99,0,*5C
1513252929.05,282,6.06,71702.8,-7.23,-18.69,-19.07,0,*57
1513252930.24,283,6.06,71680.3,-7.23,-18.83,-19.03,0,*56
1513252931.49,284,6.06,71682.0,-7.21,-19.17,-19.23,0,*5D
1513252932.74,285,6.06,71680.5,-7.21,-19.31,-19.37,0,*5D
1513252933.94,286,6.06,71686.8,-7.25,-19.13,-19.03,0,*5D
1513252935.17,287,6.06,71660.8,-7.25,-18.89,-18.59,0,*50
1513252936.37,288,6.06,71650.5,-7.25,-18.79,-18.49,0,*51
1513252937.6,289,6.06,71630.0,-7.25,-18.93,-18.49,0,*54
1513252938.85,290,6.06,71636.5,-7.27,-18.73,-18.31,0,*5F
1513252940.08,291,6.06,71648.5,-7.25,-18.35,-17.87,0,*5C
1513252941.3,292,6.06,71642.5,-7.25,-18.17,-17.55,0,*50
1513252942.52,293,6.06,71610.0,-7.25,-17.87,-17.17,0,*51
1513252943.72,294,6.06,71600.8,-7.25,-17.87,-16.93,0,*5B
1513252944.97,295,6.06,71618.3,-7.25,-17.59,-16.65,0,*50
1513252946.16,296,6.06,71606.5,-7.25,-17.31,-16.03,0,*5D
1513252947.41,297,6.06,71622.8,-7.27,-17.11,-15.49,0,*51
1513252948.66,298,6.06,71628.3,-7.27,-16.93,-15.01,0,*59
1513252949.86,299,6.06,71642.8,-7.25,-16.37,-14.29,0,*5F
1513252951.1,300,6.06,71650.0,-7.25,-15.89,-13.79,0,*5A
1513252952.28,301,6.06,71646.3,-7.25,-15.49,-13.47,0,*5A
1513252953.47,302,6.06,71646.0,-7.25,-14.65,-13.15,0,*51
1513252954.67,303,6.06,71644.8,-7.25,-14.29,-13.07,0,*5B
1513252955.86,304,6.06,71640.5,-7.25,-13.93,-13.07,0,*5A
1513252957.11,305,6.06,71662.5,-7.27,-13.79,-13.07,0,*5D
1513252958.36,306,6.06,71670.3,-7.27,-13.51,-13.29,0,*58
1513252959.58,307,6.06,71634.8,-7.25,-13.51,-13.87,0,*5F
1513252960.84,308,6.06,71648.8,-7.25,-13.61,-14.47,0,*58
1513252962.04,309,6.06,71680.0,-7.25,-13.73,-14.89,0,*58
1513252963.24,310,6.06,71646.0,-7.25,-13.93,-15.29,0,*55
1513252964.45,311,6.06,71658.5,-7.25,-14.37,-15.75,0,*54
1513252965.67,312,6.06,71670.5,-7.25,-14.65,-15.89,0,*53
1513252966.89,313,6.06,71674.3,-7.25,-14.75,-15.75,0,*50
1513252968.12,314,6.06,71666.3,-7.21,-14.89,-15.71,0,*54
1513252969.36,315,6.06,71648.5,-7.23,-15.01,-15.85,0,*5D
1513252970.55,316,6.06,71672.3,-7.23,-14.89,-15.99,0,*52
1513252971.77,317,6.06,71628.8,-7.23,-14.61,-16.13,0,*54
1513252973.0,318,6.06,71624.3,-7.23,-14.75,-16.59,0,*50
1513252974.23,319,6.06,71674.8,-7.23,-14.83,-16.79,0,*5A
1513252975.44,320,6.06,71716.8,-7.25,-15.21,-17.31,0,*52
1513252976.71,321,6.06,71706.8,-7.27,-15.35,-17.55,0,*56
1513252977.95,322,6.06,71712.0,-7.25,-15.21,-17.59,0,*5E
1513252979.15,323,6.06,71690.8,-7.25,-15.49,-17.69,0,*52
1513252980.37,324,6.06,71662.3,-7.27,-15.67,-17.69,0,*5B
1513252981.59,325,6.06,71668.5,-7.23,-16.17,-18.25,0,*5D
1513252982.83,326,6.06,71654.8,-7.23,-16.65,-18.59,0,*50
1513252984.08,327,6.06,71656.8,-7.25,-17.17,-18.93,0,*55
1513252985.28,328,6.06,71640.0,-7.25,-17.87,-19.13,0,*5A
1513252986.53,329,6.06,71626.8,-7.25,-18.01,-18.93,0,*53
1513252987.72,330,6.06,71620.0,-7.25,-18.11,-18.79,0,*5E
1513252988.91,331,6.06,71650.8,-7.25,-18.21,-19.03,0,*50
1513252990.16,332,6.06,71668.3,-7.25,-18.31,-18.93,0,*5A
1513252991.43,333,6.06,71690.5,-7.27,-18.31,-18.89,0,*52
1513252992.68,334,6.06,71690.8,-7.25,-18.35,-18.93,0,*58
1513252993.92,335,6.06,71662.5,-7.25,-18.35,-18.89,0,*52
1513252995.11,336,6.06,71646.8,-7.25,-18.45,-19.07,0,*51
1513252996.31,337,6.06,71658.3,-7.25,-18.17,-18.65,0,*52
1513252997.53,338,6.06,71680.3,-7.27,-18.21,-18.79,0,*57
1513252998.72,339,6.06,71686.0,-7.25,-18.21,-18.79,0,*54
1513252999.91,340,6.06,71708.0,-7.25,-18.17,-18.79,0,*5F
1513253001.12,341,6.06,71700.8,-7.23,-18.07,-18.59,0,*5B
1513253002.32,342,6.06,71706.8,-7.25,-18.21,-18.79,0,*58
1513253003.54,343,6.06,71732.3,-7.25,-18.31,-18.79,0,*58
1513253004.75,344,6.06,71718.5,-7.25,-18.21,-18.89,0,*51
1513253005.97,345,6.06,71682.5,-7.27,-18.17,-19.03,0,*54
1513253007.18,346,6.06,71686.5,-7.27,-18.17,-19.07,0,*53
1513253008.41,347,6.06,71712.3,-7.25,-17.87,-18.93,0,*5A
1513253009.68,348,6.06,71704.8,-7.27,-18.31,-19.65,0,*5D
1513253010.94,349,6.06,71710.0,-7.25,-18.35,-19.57,0,*5B
1513253012.16,350,6.06,71708.0,-7.25,-18.65,-20.15,0,*5A
1513253013.38,351,6.06,71664.8,-7.25,-18.89,-20.29,0,*56
1513253014.59,352,6.06,71702.5,-7.25,-19.37,-20.43,0,*5D
1513253015.85,353,6.06,71682.8,-7.27,-19.65,-20.43,0,*59
1513253017.12,354,6.06,71670.3,-7.27,-19.65,-20.35,0,*5F
1513253018.4,355,6.06,71688.8,-7.27,-19.57,-20.19,0,*51
1513253019.65,356,6.06,71692.5,-7.27,-19.41,-19.99,0,*57
1513253020.87,357,6.06,71666.3,-7.27,-19.51,-19.99,0,*57
1513253022.13,358,6.06,71692.3,-7.27,-19.81,-20.15,0,*5B
1513253023.34,359,6.06,71706.3,-7.25,-19.71,-20.09,0,*5A
1513253024.54,360,6.06,71696.3,-7.25,-19.71,-19.95,0,*5F
1513253025.79,361,6.06,71668.3,-7.27,-19.65,-19.71,0,*53
1513253027.01,362,6.06,71662.0,-7.25,-19.41,-19.37,0,*56
1513253028.22,363,6.06,71678.3,-7.25,-19.51,-19.37,0,*56
1513253029.47,364,6.06,71682.8,-7.27,-19.27,-19.03,0,*55
1513253030.68,365,6.06,71660.8,-7.27,-19.03,-18.79,0,*5E
1513253031.91,366,6.06,71686.5,-7.27,-18.73,-18.65,0,*56
1513253033.14,367,6.06,71684.5,-7.27,-18.65,-18.59,0,*5F
1513253034.34,368,6.06,71678.0,-7.25,-18.45,-18.45,0,*5D
1513253035.58,369,6.06,71656.0,-7.27,-18.11,-18.59,0,*52
1513253036.79,370,6.06,71692.5,-7.27,-18.17,-18.79,0,*5E
1513253038.01,371,6.06,71672.5,-7.27,-18.11,-18.79,0,*59
1513253039.25,372,6.06,71676.0,-7.27,-18.01,-18.45,0,*54
1513253040.48,373,6.06,71690.0,-7.27,-17.87,-18.45,0,*54
1513253041.76,374,6.06,71678.0,-7.27,-17.45,-18.35,0,*5A
1513253042.94,375,6.06,71684.8,-7.29,-17.73,-19.07,0,*50
1513253044.14,376,6.06,71672.5,-7.29,-17.63,-18.99,0,*54
1513253045.36,377,6.06,71688.8,-7.29,-17.59,-19.13,0,*5F
1513253046.61,378,6.06,71672.8,-7.27,-17.83,-19.27,0,*5E
1513253047.88,379,6.06,71674.8,-7.27,-18.01,-19.41,0,*5A
1513253049.11,380,6.06,71712.5,-7.27,-17.87,-19.37,0,*5C
1513253050.36,381,6.06,71674.3,-7.27,-17.87,-19.41,0,*5C
1513253051.6,382,6.06,71674.8,-7.27,-17.73,-19.41,0,*54
1513253052.85,383,6.06,71676.5,-7.27,-18.01,-19.99,0,*5A
1513253054.08,384,6.06,71682.3,-7.27,-18.17,-20.09,0,*59
1513253055.3,385,6.06,71674.0,-7.27,-18.49,-20.43,0,*5D
1513253056.51,386,6.06,71694.8,-7.25,-19.07,-20.73,0,*54
1513253057.76,387,6.06,71696.5,-7.27,-19.23,-20.73,0,*51
1513253059.0,388,6.06,71664.5,-7.27,-19.37,-20.63,0,*5A
1513253060.23,389,6.06,71660.8,-7.27,-19.37,-20.63,0,*5B
1513253061.48,390,6.06,71674.5,-7.27,-19.41,-20.59,0,*5B
1513253062.75,391,6.06,71706.8,-7.27,-19.27,-20.43,0,*51
1513253064.0,392,6.06,71716.3,-7.27,-19.57,-20.73,0,*56
1513253065.26,393,6.06,71718.3,-7.27,-19.65,-20.73,0,*56
1513253066.48,394,6.06,71692.5,-7.29,-19.99,-20.99,0,*58
1513253067.67,395,6.06,71686.0,-7.29,-19.91,-20.93,0,*5B
1513253068.9,396,6.06,71672.8,-7.27,-19.95,-20.93,0,*52
1513253070.14,397,6.06,71676.3,-7.27,-20.09,-21.03,0,*54
1513253071.38,398,6.06,71680.3,-7.27,-20.15,-21.09,0,*5C
1513253072.57,399,6.06,71676.5,-7.29,-20.25,-21.17,0,*5F
1513253073.78,400,6.06,71640.0,-7.29,-20.19,-21.09,0,*58
1513253074.99,401,6.06,71648.5,-7.29,-20.19,-21.09,0,*59
1513253076.23,402,6.06,71668.3,-7.29,-20.15,-20.79,0,*50
1513253077.48,403,6.06,71664.3,-7.27,-19.99,-20.49,0,*52
1513253078.75,404,6.06,71664.0,-7.27,-19.85,-20.35,0,*53
1513253080.0,405,6.06,71694.5,-7.27,-19.71,-20.19,0,*57
1513253081.25,406,6.06,71700.5,-7.27,-19.65,-19.99,0,*53
1513253082.45,407,6.06,71708.3,-7.29,-19.71,-19.99,0,*59
1513253083.73,408,6.06,71686.8,-7.27,-19.57,-19.81,0,*55
1513253084.95,409,6.06,71638.8,-7.27,-19.51,-19.51,0,*5F
1513253086.15,410,6.06,71662.8,-7.25,-19.51,-19.37,0,*55
1513253087.4,411,6.06,71652.5,-7.27,-19.65,-19.03,0,*56
1513253088.61,412,6.06,71668.8,-7.29,-19.71,-18.55,0,*5C
1513253089.86,413,6.06,71662.0,-7.31,-19.61,-18.21,0,*56
1513253091.08,414,6.06,71664.8,-7.29,-19.07,-17.59,0,*58
1513253092.28,415,6.06,71656.3,-7.29,-18.65,-17.35,0,*56
1513253093.53,416,6.06,71664.0,-7.29,-18.35,-17.45,0,*57
1513253094.73,417,6.06,71694.5,-7.29,-18.49,-17.35,0,*5A
1513253095.94,418,6.06,71706.8,-7.29,-18.35,-16.89,0,*58
1513253097.13,419,6.06,71682.3,-7.29,-18.25,-16.89,0,*58
1513253098.32,420,6.06,71654.3,-7.29,-18.21,-16.89,0,*56
1513253099.54,421,6.06,71690.5,-7.29,-18.01,-16.83,0,*5F
1513253100.75,422,6.06,71696.3,-7.29,-17.93,-16.89,0,*52
1513253101.99,423,6.06,71678.3,-7.29,-17.79,-17.03,0,*54
1513253103.21,424,6.06,71680.5,-7.29,-17.49,-17.03,0,*50
1513253104.49,425,6.06,71686.5,-7.27,-17.41,-17.11,0,*54
1513253105.77,426,6.06,71668.8,-7.27,-17.41,-17.17,0,*51
1513253107.01,427,6.06,71664.8,-7.27,-17.69,-17.55,0,*5C
1513253108.28,428,6.06,71668.0,-7.27,-17.59,-17.17,0,*56
1513253109.5,429,6.06,71672.0,-7.27,-17.69,-16.97,0,*5D
1513253110.75,430,6.06,71680.3,-7.27,-17.83,-16.65,0,*5C
1513253112.0,431,6.06,71706.0,-7.27,-17.73,-16.09,0,*58
1513253113.23,432,6.06,71702.3,-7.25,-17.41,-15.63,0,*57
1513253114.48,433,6.06,71696.3,-7.27,-17.25,-15.53,0,*55
1513253115.71,434,6.06,71688.0,-7.27,-16.93,-15.29,0,*53
1513253116.97,435,6.06,71688.5,-7.27,-16.65,-14.89,0,*50
1513253118.22,436,6.06,71690.8,-7.27,-16.41,-14.47,0,*57
1513253119.49,437,6.06,71694.5,-7.27,-16.27,-13.87,0,*5D
1513253120.73,438,6.06,71688.5,-7.27,-16.23,-13.43,0,*5E
1513253121.98,439,6.06,71710.8,-7.25,-15.89,-12.65,0,*5B
1513253123.2,440,6.06,71704.0,-7.25,-15.53,-12.15,0,*55
1513253124.47,441,6.06,71682.0,-7.27,-15.01,-11.63,0,*53
1513253125.7,442,6.06,71634.5,-7.25,-14.15,-11.51,0,*57
1513253126.95,443,6.06,71634.5,-7.27,-13.47,-11.89,0,*51
1513253128.17,444,6.06,71660.0,-7.25,-12.75,-12.29,0,*5D
1513253129.4,445,6.06,71666.0,-7.25,-12.53,-12.93,0,*59
1513253130.65,446,6.06,71690.3,-7.27,-12.89,-13.33,0,*54
1513253131.92,447,6.06,71724.3,-7.27,-13.79,-14.01,0,*5D
1513253133.15,448,6.06,71728.0,-7.27,-14.37,-14.29,0,*55
1513253134.37,449,6.06,71724.3,-7.27,-15.07,-14.61,0,*5A
1513253135.61,450,6.06,71754.8,-7.27,-15.39,-14.19,0,*50
1513253136.8,451,6.06,71732.3,-7.29,-15.49,-14.15,0,*54
1513253138.01,452,6.06,71748.5,-7.29,-14.97,-14.19,0,*59
1513253139.28,453,6.06,71762.0,-7.27,-14.75,-15.01,0,*52
1513253140.5,454,6.06,71744.0,-7.27,-14.65,-16.03,0,*55
1513253141.77,455,6.06,71744.0,-7.27,-15.21,-17.45,0,*56
1513253143.0,456,6.06,71734.0,-7.27,-16.03,-18.59,0,*54
1513253144.22,457,6.06,71736.0,-7.27,-16.93,-19.13,0,*53
1513253145.49,458,6.06,71746.0,-7.27,-17.97,-19.23,0,*5A
1513253146.69,459,6.06,71716.3,-7.25,-18.45,-19.13,0,*5A
1513253147.92,460,6.06,71730.0,-7.27,-18.79,-18.65,0,*5D
1513253149.17,461,6.06,71722.5,-7.27,-18.93,-18.21,0,*58
1513253150.42,462,6.06,71710.5,-7.27,-19.07,-17.41,0,*5E
1513253151.62,463,6.13,71718.3,-7.29,-19.13,-16.59,0,*5C
1513253152.84,464,6.06,71698.0,-7.29,-18.83,-15.43,0,*5B
1513253154.05,465,6.06,71706.5,-7.29,-18.17,-14.43,0,*56
1513253155.27,466,6.06,71710.0,-7.29,-17.59,-13.65,0,*53
1513253156.51,467,6.06,71716.0,-7.27,-16.69,-13.15,0,*59
1513253157.74,468,6.06,71704.8,-7.27,-15.75,-12.93,0,*57
1513253158.99,469,6.06,71714.0,-7.27,-14.79,-13.19,0,*58
1513253160.27,470,6.06,71704.3,-7.27,-14.47,-14.01,0,*53
1513253161.52,471,6.06,71700.0,-7.27,-14.65,-14.51,0,*57
1513253162.76,472,6.06,71696.3,-7.29,-14.79,-14.55,0,*53
1513253163.97,473,6.06,71702.5,-7.29,-15.11,-14.51,0,*59
1513253165.16,474,6.06,71694.3,-7.29,-15.11,-14.65,0,*59
1513253166.4,475,6.06,71692.0,-7.29,-15.21,-14.93,0,*52
1513253167.62,476,6.06,71694.0,-7.29,-15.11,-15.39,0,*53
1513253168.85,477,6.06,71704.5,-7.29,-15.57,-16.27,0,*5C
1513253170.07,478,6.06,71704.8,-7.29,-15.85,-16.83,0,*52
1513253171.31,479,6.13,71714.3,-7.29,-16.31,-17.59,0,*59
1513253172.53,480,6.06,71714.3,-7.29,-16.83,-18.01,0,*54
1513253173.72,481,6.06,71706.0,-7.29,-16.97,-18.17,0,*57
1513253174.94,482,6.06,71706.5,-7.25,-17.11,-18.49,0,*5C
1513253176.16,483,6.06,71706.8,-7.29,-17.45,-19.17,0,*5A
1513253177.4,484,6.06,71706.0,-7.29,-17.59,-19.41,0,*53
1513253178.65,485,6.06,71734.8,-7.27,-17.69,-19.41,0,*5F
1513253179.88,486,6.13,71722.5,-7.27,-18.45,-20.09,0,*5B
1513253181.15,487,6.06,71720.5,-7.27,-18.93,-20.35,0,*5E
1513253182.37,488,6.06,71702.3,-7.29,-19.07,-20.35,0,*53
1513253183.62,489,6.06,71680.3,-7.29,-19.41,-20.49,0,*5B
1513253184.84,490,6.06,71708.5,-7.29,-19.31,-20.25,0,*5E
1513253186.07,491,6.06,71720.3,-7.29,-19.17,-20.35,0,*5A
1513253187.31,492,6.06,71720.5,-7.29,-19.41,-20.35,0,*5A
1513253188.54,493,6.06,71712.0,-7.29,-19.31,-20.25,0,*5D
1513253189.76,494,6.13,71696.3,-7.29,-19.31,-20.25,0,*5A
1513253191.01,495,6.06,71702.5,-7.29,-19.31,-20.35,0,*5A
1513253192.24,496,6.06,71694.8,-7.31,-19.13,-20.05,0,*53
1513253193.47,497,6.06,71690.0,-7.29,-19.13,-20.19,0,*56
1513253194.7,498,6.06,71692.8,-7.31,-19.17,-20.25,0,*5B
1513253195.93,499,6.06,71700.3,-7.31,-19.17,-20.29,0,*56
1513253197.16,500,6.06,71712.3,-7.31,-19.13,-20.09,0,*51
1513253198.39,501,6.06,71706.3,-7.31,-19.13,-20.09,0,*50
1513253199.64,502,6.06,71710.3,-7.31,-19.03,-20.19,0,*53
1513253200.87,503,6.06,71700.8,-7.31,-19.13,-20.09,0,*52
1513253202.13,504,6.06,71702.5,-7.31,-19.17,-20.19,0,*50
1513253203.35,505,6.06,71678.8,-7.29,-18.93,-19.75,0,*55
1513253204.54,506,6.06,71696.5,-7.29,-18.83,-19.75,0,*57
1513253205.78,507,6.06,71708.5,-7.31,-18.89,-19.75,0,*55
1513253207.03,508,6.13,71702.8,-7.31,-18.99,-19.81,0,*50
1513253208.25,509,6.06,71688.3,-7.31,-18.99,-19.91,0,*50
1513253209.48,510,6.13,71710.3,-7.31,-19.13,-20.09,0,*50
1513253210.72,511,6.06,71720.5,-7.31,-19.13,-19.95,0,*5E
1513253211.94,512,6.13,71740.8,-7.31,-18.99,-19.95,0,*5E
1513253213.17,513,6.06,71734.3,-7.31,-19.03,-19.95,0,*5D
1513253214.42,514,6.13,71744.8,-7.31,-18.99,-19.81,0,*5D
1513253215.68,515,6.13,71730.8,-7.31,-18.89,-19.81,0,*5D
1513253216.91,516,6.06,71726.8,-7.31,-19.13,-19.95,0,*59
1513253218.14,517,6.06,71728.8,-7.31,-18.99,-19.91,0,*5F
1513253219.36,518,6.06,71732.3,-7.31,-19.03,-20.05,0,*55
1513253220.59,519,6.06,71730.5,-7.31,-19.13,-20.09,0,*59
1513253221.82,520,6.06,71742.0,-7.33,-19.31,-20.29,0,*53
1513253223.1,521,6.06,71750.8,-7.31,-19.23,-20.19,0,*50
1513253224.32,522,6.13,71756.0,-7.31,-19.03,-19.75,0,*51
1513253225.53,523,6.06,71746.0,-7.33,-19.17,-19.95,0,*59
1513253226.76,524,6.06,71732.8,-7.33,-19.31,-19.95,0,*5A
1513253227.99,525,6.06,71746.3,-7.31,-19.51,-20.05,0,*5C
1513253229.22,526,6.13,71732.0,-7.33,-19.27,-19.75,0,*51
1513253230.45,527,6.06,71750.0,-7.33,-19.37,-19.61,0,*54
1513253231.68,528,6.13,71728.0,-7.33,-19.31,-19.47,0,*59
1513253232.94,529,6.06,71736.8,-7.35,-19.23,-19.17,0,*58
1513253234.13,530,6.06,71736.0,-7.33,-19.17,-18.83,0,*5D
1513253235.36,531,6.13,71740.8,-7.35,-19.17,-18.65,0,*52
1513253236.56,532,6.13,71738.0,-7.33,-18.83,-18.41,0,*5D
1513253237.79,533,6.13,71728.0,-7.33,-18.73,-17.97,0,*57
1513253239.01,534,6.13,71738.5,-7.33,-18.25,-17.63,0,*58
1513253240.23,535,6.13,71730.5,-7.33,-18.11,-17.55,0,*5B
1513253241.46,536,6.06,71728.3,-7.35,-17.87,-17.69,0,*51
1513253242.71,537,6.13,71738.5,-7.33,-17.93,-17.63,0,*59
1513253243.95,538,6.13,71746.8,-7.33,-17.93,-17.63,0,*56
1513253245.15,539,6.13,71752.3,-7.33,-18.25,-17.69,0,*5F
1513253246.43,540,6.06,71762.0,-7.35,-18.59,-17.59,0,*5F
1513253247.67,541,6.13,71756.5,-7.33,-18.89,-17.25,0,*5E
1513253248.89,542,6.13,71754.8,-7.33,-18.89,-16.93,0,*51
1513253250.08,543,6.13,71752.5,-7.33,-19.03,-16.45,0,*58
1513253251.31,544,6.13,71752.3,-7.35,-18.73,-15.95,0,*51
1513253252.54,545,6.06,71756.3,-7.33,-18.41,-15.43,0,*5C
1513253253.79,546,6.13,71758.0,-7.35,-18.17,-15.01,0,*5C
1513253255.04,547,6.13,71750.0,-7.35,-18.11,-14.51,0,*5F
1513253256.28,548,6.13,71748.3,-7.35,-17.55,-13.65,0,*5F
1513253257.51,549,6.06,71744.0,-7.35,-16.83,-13.07,0,*50
1513253258.76,550,6.06,71732.8,-7.35,-16.37,-12.57,0,*53
1513253260.01,551,6.13,71720.8,-7.35,-15.71,-12.35,0,*57
1513253261.26,552,6.06,71700.0,-7.35,-14.93,-12.29,0,*54
1513253262.49,553,6.13,71720.3,-7.33,-14.43,-12.43,0,*52
1513253263.72,554,6.13,71726.8,-7.35,-14.15,-12.89,0,*56
1513253264.96,555,6.06,71718.8,-7.35,-13.55,-13.19,0,*5C
1513253266.17,556,6.13,71724.0,-7.35,-13.15,-13.47,0,*50
1513253267.39,557,6.13,71718.8,-7.37,-13.15,-14.01,0,*56
1513253268.64,558,6.06,71716.0,-7.39,-13.19,-14.75,0,*58
1513253269.9,559,6.13,71716.5,-7.37,-13.61,-15.35,0,*5D
1513253271.18,560,6.13,71726.0,-7.35,-14.01,-15.89,0,*53
1513253272.4,561,6.13,71742.3,-7.37,-14.33,-16.23,0,*52
1513253273.62,562,6.13,71742.8,-7.37,-14.93,-16.79,0,*54
1513253274.84,563,6.06,71740.5,-7.37,-15.53,-17.25,0,*50
1513253276.12,564,6.13,71750.5,-7.39,-16.09,-17.55,0,*52
1513253277.37,565,6.06,71744.3,-7.39,-16.93,-17.97,0,*5E
1513253278.62,566,6.13,71754.5,-7.39,-17.41,-18.25,0,*55
1513253279.83,567,6.13,71738.8,-7.37,-17.69,-18.59,0,*5B
1513253281.05,568,6.13,71730.0,-7.39,-18.11,-19.03,0,*54
1513253282.28,569,6.13,71752.5,-7.39,-18.49,-19.51,0,*5F
1513253283.55,570,6.13,71760.3,-7.39,-18.93,-19.65,0,*57
1513253284.81,571,6.13,71752.5,-7.37,-18.93,-19.57,0,*59
1513253286.07,572,6.13,71752.5,-7.39,-19.07,-19.65,0,*59
1513253287.29,573,6.13,71748.3,-7.39,-19.07,-19.71,0,*5D
1513253288.55,574,6.13,71736.8,-7.39,-19.07,-19.57,0,*5E
1513253289.8,575,6.13,71740.0,-7.39,-19.23,-19.51,0,*5F
1513253291.08,576,6.13,71752.3,-7.39,-19.23,-19.27,0,*5D
1513253292.34,577,6.06,71754.5,-7.39,-19.27,-19.03,0,*5E
1513253293.6,578,6.13,71752.5,-7.37,-19.27,-18.93,0,*57
1513253294.82,579,6.13,71750.0,-7.39,-19.17,-18.65,0,*52
1513253296.07,580,6.13,71760.5,-7.39,-19.17,-18.59,0,*5B
1513253297.32,581,6.13,71760.3,-7.39,-18.89,-18.11,0,*50
1513253298.6,582,6.13,71754.8,-7.39,-18.59,-17.97,0,*5F
1513253299.82,583,6.13,71740.0,-7.39,-18.45,-17.73,0,*59
1513253301.08,584,6.13,71726.8,-7.39,-18.17,-17.59,0,*51
1513253302.35,585,6.13,71722.8,-7.39,-18.01,-17.25,0,*5C
1513253303.6,586,6.13,71716.8,-7.39,-17.83,-17.25,0,*5A
1513253304.85,587,6.13,71728.8,-7.39,-17.83,-17.45,0,*5D
1513253306.11,588,6.13,71730.3,-7.39,-17.31,-17.07,0,*5D
1513253307.38,589,6.13,71716.3,-7.43,-17.59,-17.17,0,*5E
1513253308.63,590,6.13,71720.5,-7.43,-17.87,-17.17,0,*55
1513253309.88,591,6.13,71718.0,-7.43,-18.01,-16.89,0,*53
1513253311.13,592,6.13,71724.3,-7.43,-17.79,-16.59,0,*5D
1513253312.38,593,6.13,71728.3,-7.43,-17.17,-15.99,0,*5B
1513253313.66,594,6.13,71726.5,-7.43,-16.69,-15.57,0,*56
1513253314.93,595,6.13,71738.3,-7.43,-16.13,-15.49,0,*55
1513253316.16,596,6.13,71734.3,-7.45,-16.41,-16.13,0,*5B
1513253317.38,597,6.13,71728.0,-7.45,-16.41,-16.31,0,*5A
1513253318.58,598,6.13,71730.0,-7.45,-16.45,-16.79,0,*5D